Flag for U.S.A. Weather past 2 weeks in Modesto, California, U.S.A.

Now
66 °F

Clear.


Feels Like: 66 °F
Forecast: 53 / 80 °F
Wind: 8 mph from Northwest

Location: Modesto City-County-Sham Field


UV Index: 5 (Moderate)

Visibility: 10 mi


Pressure: 29.87 "Hg

Humidity: 39%

Dew point: 40 °F

Location of ModestoLocation

Historic Weather in Modesto

°F

Modesto temperature yesterday

Maximum temperature yesterday: 85 °F (at 4:53 PM)
Minimum temperature yesterday: 54 °F (at 5:53 AM)
Average temperature yesterday: 70 °F

Past Weeks' High & Low Weather Summary

 TemperatureHumidityPressure
High86 °F (Apr 8, 4:53 PM)97% (Apr 14, 5:53 AM)30.22 "Hg (Apr 14, 5:53 AM)
Low45 °F (Apr 5, 6:53 AM)19% (Apr 15, 2:53 PM)29.74 "Hg (Apr 17, 4:53 PM)
Average66 °F56%29.96 "Hg
* Reported Apr 3 9:53 PM — Apr 18 9:53 PM, Modesto, Weather by CustomWeather, © 2014

Note: Actual official high and low records may vary slightly from our data, if they occured in-between our weather recording intervals... More about our weather records

Advertising

Historic Weather Conditions — Data for Previous 24 hours

 ConditionsComfort  
Time TempWeatherWind HumidityBarometerVisibility
9:53 PM
Apr 18
66 °FClear.8 mph39%29.87 "Hg10 mi
8:53 PM69 °FClear.9 mph38%29.85 "Hg10 mi
7:53 PM71 °FSunny.13 mph41%29.84 "Hg10 mi
6:53 PM75 °FSunny.15 mph37%29.82 "Hg10 mi
5:53 PM79 °FSunny.13 mph32%29.80 "Hg10 mi
4:53 PM79 °FSunny.15 mph32%29.80 "Hg10 mi
3:53 PM78 °FSunny.13 mph33%29.80 "Hg10 mi
2:53 PM79 °FSunny.13 mph32%29.82 "Hg10 mi
1:53 PM78 °FSunny.13 mph32%29.83 "Hg10 mi
12:53 PM75 °FSunny.10 mph37%29.85 "Hg10 mi
11:53 AM72 °FSunny.14 mph41%29.87 "Hg10 mi
10:53 AM69 °FSunny.15 mph44%29.88 "Hg10 mi
9:53 AM67 °FSunny.16 mph44%29.88 "Hg10 mi
8:53 AM65 °FHaze.20 mph45%29.87 "Hg3 mi
7:53 AM61 °FSunny.16 mph54%29.86 "Hg10 mi
6:53 AM59 °FClear.13 mph58%29.84 "Hg10 mi
5:53 AM60 °FClear.16 mph56%29.83 "Hg10 mi
4:53 AM60 °FClear.14 mph56%29.81 "Hg10 mi
3:53 AM60 °FClear.14 mph53%29.81 "Hg10 mi
2:53 AM58 °FClear.9 mph62%29.81 "Hg10 mi
1:53 AM60 °FClear.7 mph58%29.80 "Hg10 mi
12:53 AM61 °FClear.7 mph56%29.81 "Hg10 mi
11:53 PM
Apr 17
63 °FClear.10 mph54%29.81 "Hg10 mi
Weather by CustomWeather, © 2014

See weather overview